Henry Tift Myers AP, Tifton,, GA

1:42 PM EST on December 08, 2019 (GMT -0500)
Myers

Weather History for KTMA - October, 2019

Change the Weather History Date:

Tuesday, October 22, 2019

  Actual Average Record
Temperature  
Mean Temperature 67 °F -  
Max Temperature 78 °F 76 °F 85 °F (2017)
Min Temperature 56 °F 52 °F 44 °F (2018)
Cooling Degree Days 2    
Growing Degree Days 17 (Base 50)    
Moisture  
Dew Point 61 °F    
Average Humidity 72    
Maximum Humidity 100    
Minimum Humidity 35    
Precipitation  
Precipitation 0.00 in - - ()
Sea Level Pressure  
Sea Level Pressure 29.97 in    
Wind  
Wind Speed 6 mph ()    
Max Wind Speed 17 mph    
Max Gust Speed 24 mph    
Visibility 9.8 miles    
Events Rain    
Averages and records for this station are not official NWS values.
T = Trace of Precipitation, MM = Missing Value Source: Averaged Metar Reports

Daily Weather History Graph

Daily Weather History Graph

Search for Another Location

Airport or City:

Astronomy

Oct. 22, 2019 Rise Set
Actual Time 7:41 AM EDT 6:54 PM EDT
Civil Twilight 7:17 AM EDT 7:19 PM EDT
Nautical Twilight 6:48 AM EDT 7:47 PM EDT
Astronomical Twilight 6:20 AM EDT 8:15 PM EDT
Moon 1:21 AM EDT (10/22) 3:34 PM EDT (10/22)
Length of Visible Light 12h 02m
Length of Day
11h 12m
Last Quarter, 37% of the Moon is Illuminated
Oct 22
Last Quarter
Oct 27
New
Nov 4
First Quarter
Nov 12
Full
Nov 19
Last Quarter

Hourly Weather History & Observations

Time (EDT) Temp. Dew Point Humidity Pressure Visibility Wind Dir Wind Speed Gust Speed Precip Events Conditions
12:15 AM 72.9 °F 71.6 °F 96% 29.98 in 10.0 mi SSE 5.8 mph - N/A   Overcast
12:35 AM 72.9 °F 71.6 °F 96% 29.98 in 10.0 mi SSE 4.6 mph - N/A   Overcast
12:55 AM 72.9 °F 71.6 °F 96% 29.98 in 10.0 mi SSE 4.6 mph - N/A   Overcast
1:15 AM 73.0 °F 71.8 °F 96% 29.99 in 10.0 mi Calm Calm - N/A   Overcast
1:35 AM 72.7 °F 71.6 °F 96% 29.98 in 10.0 mi Calm Calm - N/A   Mostly Cloudy
1:55 AM 72.5 °F 71.6 °F 97% 29.97 in 10.0 mi Calm Calm - N/A   Mostly Cloudy
2:15 AM 71.6 °F 71.2 °F 99% 29.97 in 10.0 mi Calm Calm - N/A   Mostly Cloudy
2:35 AM 72.5 °F 71.6 °F 97% 29.96 in 10.0 mi SSE 3.5 mph - N/A   Overcast
2:55 AM 72.5 °F 72.0 °F 98% 29.93 in 10.0 mi SSE 5.8 mph - N/A   Light Drizzle
3:15 AM 72.5 °F 72.0 °F 98% 29.92 in 10.0 mi SSE 6.9 mph - N/A Rain Light Rain
3:35 AM 72.5 °F 72.5 °F 100% 29.89 in 4.0 mi SSE 9.2 mph - N/A Rain Light Rain
3:55 AM 72.7 °F 72.5 °F 99% 29.89 in 5.0 mi SSE 9.2 mph - N/A Rain Light Rain
4:15 AM 73.2 °F 72.7 °F 98% 29.89 in 7.0 mi SSW 4.6 mph - N/A Rain Light Rain
4:35 AM 73.6 °F 73.0 °F 98% 29.88 in 10.0 mi South 10.4 mph 16.1 mph N/A   Overcast
4:55 AM 73.8 °F 73.2 °F 98% 29.87 in 10.0 mi South 9.2 mph - N/A   Overcast
5:15 AM 73.9 °F 73.0 °F 97% 29.89 in 10.0 mi SSW 5.8 mph - N/A   Overcast
5:35 AM 73.6 °F 72.3 °F 96% 29.89 in 10.0 mi SW 3.5 mph - N/A   Scattered Clouds
5:55 AM 73.0 °F 72.1 °F 97% 29.90 in 10.0 mi South 3.5 mph - N/A   Clear
6:15 AM 72.5 °F 70.7 °F 94% 29.90 in 10.0 mi SSW 4.6 mph - N/A   Clear
6:35 AM 72.1 °F 69.6 °F 92% 29.91 in 10.0 mi SSW 6.9 mph - N/A   Clear
6:55 AM 71.6 °F 68.7 °F 91% 29.91 in 10.0 mi SW 6.9 mph - N/A   Clear
7:15 AM 70.7 °F 68.2 °F 92% 29.92 in 10.0 mi SW 5.8 mph - N/A   Scattered Clouds
7:35 AM 70.2 °F 68.0 °F 93% 29.92 in 10.0 mi SSW 4.6 mph - N/A   Scattered Clouds
7:55 AM 69.8 °F 68.0 °F 94% 29.93 in 10.0 mi SW 3.5 mph - N/A   Clear
8:15 AM 69.8 °F 68.2 °F 95% 29.94 in 10.0 mi SW 6.9 mph - N/A   Mostly Cloudy
8:35 AM 70.0 °F 68.9 °F 96% 29.94 in 10.0 mi SW 4.6 mph - N/A   Mostly Cloudy
8:55 AM 70.9 °F 69.3 °F 95% 29.94 in 10.0 mi WSW 4.6 mph - N/A   Mostly Cloudy
9:15 AM 71.1 °F 69.3 °F 94% 29.96 in 10.0 mi WSW 5.8 mph - N/A   Scattered Clouds
9:35 AM 71.6 °F 69.3 °F 92% 29.97 in 10.0 mi WSW 9.2 mph - N/A   Overcast
9:55 AM 72.1 °F 69.3 °F 91% 29.98 in 10.0 mi West 9.2 mph - N/A   Overcast
10:15 AM 72.7 °F 69.6 °F 90% 29.98 in 10.0 mi West 8.1 mph - N/A   Overcast
10:35 AM 73.9 °F 69.8 °F 87% 29.98 in 10.0 mi West 8.1 mph - N/A   Overcast
10:55 AM 75.2 °F 69.8 °F 83% 29.97 in 10.0 mi WSW 10.4 mph - N/A   Mostly Cloudy
11:15 AM 75.7 °F 69.6 °F 81% 29.98 in 10.0 mi West 9.2 mph 16.1 mph N/A   Mostly Cloudy
11:35 AM 77.0 °F 70.0 °F 79% 29.98 in 10.0 mi WNW 10.4 mph 17.3 mph N/A   Overcast
11:55 AM 77.0 °F 69.8 °F 78% 29.97 in 10.0 mi WNW 10.4 mph - N/A   Overcast
12:15 PM 77.9 °F 69.3 °F 75% 29.97 in 10.0 mi West 9.2 mph 16.1 mph N/A   Overcast
12:35 PM 75.7 °F 66.6 °F 73% 29.98 in 10.0 mi WNW 17.3 mph 24.2 mph N/A   Overcast
12:55 PM 75.7 °F 65.8 °F 71% 29.98 in 10.0 mi WNW 13.8 mph - N/A   Overcast
1:15 PM 75.2 °F 62.6 °F 65% 29.98 in 10.0 mi NW 15.0 mph 20.7 mph N/A   Overcast
1:35 PM 76.1 °F 61.5 °F 60% 29.98 in 10.0 mi WNW 8.1 mph - N/A   Overcast
1:55 PM 75.7 °F 61.2 °F 60% 29.97 in 10.0 mi West 9.2 mph - N/A   Overcast
2:15 PM 76.1 °F 59.7 °F 57% 29.96 in 10.0 mi WNW 9.2 mph - N/A   Overcast
2:35 PM 76.5 °F 57.7 °F 52% 29.96 in 10.0 mi WNW 10.4 mph - N/A   Overcast
2:55 PM 77.4 °F 55.6 °F 47% 29.95 in 10.0 mi West 8.1 mph - N/A   Overcast
3:15 PM 78.3 °F 53.1 °F 41% 29.95 in 10.0 mi NW 10.4 mph - N/A   Scattered Clouds
3:35 PM 77.7 °F 52.0 °F 41% 29.95 in 10.0 mi WNW 11.5 mph - N/A   Clear
3:55 PM 77.7 °F 52.3 °F 41% 29.95 in 10.0 mi West 10.4 mph - N/A   Clear
4:15 PM 77.9 °F 51.3 °F 39% 29.95 in 10.0 mi WNW 10.4 mph - N/A   Clear
4:35 PM 77.7 °F 49.3 °F 37% 29.96 in 10.0 mi WNW 9.2 mph - N/A   Clear
4:55 PM 77.7 °F 48.6 °F 36% 29.96 in 10.0 mi WNW 10.4 mph 16.1 mph N/A   Clear
5:15 PM 77.2 °F 47.8 °F 35% 29.96 in 10.0 mi WNW 13.8 mph 18.4 mph N/A   Clear
5:35 PM 76.1 °F 47.7 °F 37% 29.96 in 10.0 mi NW 10.4 mph - N/A   Clear
5:55 PM 75.6 °F 48.4 °F 38% 29.96 in 10.0 mi WNW 6.9 mph - N/A   Clear
6:15 PM 74.8 °F 47.5 °F 38% 29.97 in 10.0 mi WNW 9.2 mph - N/A   Clear
6:35 PM 73.8 °F 47.5 °F 39% 29.98 in 10.0 mi WNW 8.1 mph - N/A   Clear
6:55 PM 72.7 °F 47.7 °F 41% 29.98 in 10.0 mi WNW 5.8 mph - N/A   Clear
7:15 PM 71.4 °F 48.2 °F 44% 29.99 in 10.0 mi WNW 6.9 mph - N/A   Clear
7:35 PM 70.0 °F 47.7 °F 45% 30.00 in 10.0 mi WNW 5.8 mph - N/A   Clear
7:55 PM 68.4 °F 47.7 °F 48% 30.01 in 10.0 mi WNW 5.8 mph - N/A   Clear
8:15 PM 68.0 °F 46.2 °F 46% 30.02 in 10.0 mi NW 8.1 mph - N/A   Clear
8:35 PM 67.1 °F 44.6 °F 44% 30.04 in 10.0 mi NW 9.2 mph - N/A   Clear
8:55 PM 66.4 °F 42.4 °F 42% 30.04 in 10.0 mi WNW 8.1 mph - N/A   Clear
9:15 PM 65.5 °F 41.4 °F 41% 30.04 in 10.0 mi WNW 6.9 mph - N/A   Clear
9:35 PM 64.4 °F 41.5 °F 43% 30.05 in 10.0 mi WNW 6.9 mph - N/A   Clear
9:55 PM 63.5 °F 41.5 °F 45% 30.06 in 10.0 mi WNW 5.8 mph - N/A   Clear
10:15 PM 62.1 °F 42.4 °F 49% 30.06 in 10.0 mi WNW 5.8 mph - N/A   Clear
10:35 PM 61.7 °F 42.8 °F 50% 30.07 in 10.0 mi WNW 5.8 mph - N/A   Clear
10:55 PM 59.0 °F 45.0 °F 60% 30.07 in 10.0 mi WNW 3.5 mph - N/A   Clear
11:15 PM 58.1 °F 45.3 °F 62% 30.07 in 10.0 mi WNW 4.6 mph - N/A   Clear
11:35 PM 56.5 °F 46.9 °F 70% 30.07 in 10.0 mi WNW 3.5 mph - N/A   Clear
11:55 PM 56.3 °F 46.6 °F 70% 30.07 in 10.0 mi WNW 3.5 mph - N/A   Clear